Hourly Weather Otoki

Today, 30 July, Friday

Time Temperature Precipitation Wind Pressure Humidity
00:00 +19°C° 0 mm 2 mps 740 mmHg 69%
01:00 +18°C° 0 mm 2 mps 740 mmHg 73%
02:00 +18°C° 0 mm 2 mps 740 mmHg 75%
03:00 +18°C° 0 mm 1 mps 740 mmHg 77%
04:00 +18°C° 0 mm 1 mps 740 mmHg 78%
05:00 +19°C° 0 mm 1 mps 740 mmHg 74%
06:00 +21°C° 0 mm 1 mps 740 mmHg 69%
07:00 +22°C° 0 mm 1 mps 740 mmHg 64%
08:00 +24°C° 0 mm 1 mps 740 mmHg 58%
09:00 +26°C° 0 mm 2 mps 739 mmHg 52%
10:00 +27°C° 0 mm 3 mps 739 mmHg 46%
11:00 +28°C° 0 mm 4 mps 739 mmHg 43%
12:00 +29°C° 0 mm 4 mps 739 mmHg 40%
13:00 +30°C° 0 mm 5 mps 738 mmHg 37%
14:00 +30°C° 0 mm 5 mps 738 mmHg 37%
15:00 +30°C° 0 mm 5 mps 738 mmHg 37%
16:00 +30°C° 0 mm 5 mps 738 mmHg 37%
17:00 +28°C° 0 mm 3 mps 738 mmHg 44%
18:00 +26°C° 0 mm 2 mps 738 mmHg 51%
19:00 +25°C° 0 mm 1 mps 737 mmHg 58%
20:00 +23°C° 0 mm 1 mps 737 mmHg 60%
21:00 +22°C° 0 mm 1 mps 737 mmHg 63%
22:00 +21°C° 0 mm 1 mps 737 mmHg 65%
23:00 +21°C° 0 mm 1 mps 737 mmHg 66%

Tomorrow, 31 July, Saturday

Time Temperature Precipitation Wind Pressure Humidity
00:00 +21°C° 0 mm 1 mps 737 mmHg 68%
01:00 +20°C° 0 mm 2 mps 737 mmHg 69%
02:00 +20°C° 0 mm 2 mps 737 mmHg 71%
03:00 +20°C° 0 mm 2 mps 737 mmHg 72%
04:00 +19°C° 0 mm 2 mps 736 mmHg 73%
05:00 +20°C° 0.2 mm 2 mps 737 mmHg 73%
06:00 +21°C° 0.2 mm 2 mps 737 mmHg 73%
07:00 +23°C° 0.2 mm 2 mps 737 mmHg 72%
08:00 +24°C° 0 mm 3 mps 737 mmHg 68%
09:00 +25°C° 0 mm 3 mps 737 mmHg 65%
10:00 +26°C° 0 mm 3 mps 738 mmHg 61%
11:00 +26°C° 0.2 mm 4 mps 738 mmHg 56%
12:00 +27°C° 0.2 mm 4 mps 737 mmHg 50%
13:00 +28°C° 0.2 mm 5 mps 737 mmHg 45%
14:00 +28°C° 0 mm 5 mps 737 mmHg 43%
15:00 +28°C° 0 mm 5 mps 737 mmHg 41%
16:00 +28°C° 0 mm 5 mps 737 mmHg 38%
17:00 +26°C° 0 mm 5 mps 737 mmHg 44%
18:00 +25°C° 0 mm 4 mps 737 mmHg 50%
19:00 +22°C° 0 mm 3 mps 738 mmHg 55%
20:00 +21°C° 0 mm 2 mps 738 mmHg 58%
21:00 +20°C° 0 mm 2 mps 738 mmHg 60%
22:00 +20°C° 0 mm 1 mps 738 mmHg 63%
23:00 +19°C° 0 mm 1 mps 738 mmHg 63%

Day after tomorrow, 1 August, Sunday

Time Temperature Precipitation Wind Pressure Humidity
00:00 +19°C° 0 mm 1 mps 738 mmHg 64%
01:00 +18°C° 0 mm 1 mps 738 mmHg 65%
02:00 +16°C° 0 mm 0 mps 738 mmHg 67%
03:00 +16°C° 0 mm 0 mps 738 mmHg 68%
04:00 +15°C° 0 mm 0 mps 738 mmHg 70%
05:00 +18°C° 0.3 mm 1 mps 738 mmHg 71%
06:00 +18°C° 0.3 mm 1 mps 738 mmHg 72%
07:00 +19°C° 0.3 mm 1 mps 738 mmHg 73%
08:00 +17°C° 3 mm 2 mps 738 mmHg 80%
09:00 +16°C° 3 mm 2 mps 738 mmHg 87%
10:00 +16°C° 3 mm 3 mps 738 mmHg 94%
11:00 +16°C° 0.8 mm 3 mps 738 mmHg 93%
12:00 +16°C° 0.8 mm 2 mps 738 mmHg 92%
13:00 +16°C° 0.8 mm 2 mps 738 mmHg 92%
14:00 +16°C° 0.6 mm 2 mps 738 mmHg 91%
15:00 +16°C° 0.6 mm 1 mps 738 mmHg 91%
16:00 +16°C° 0.6 mm 1 mps 738 mmHg 91%
17:00 +16°C° 0 mm 1 mps 738 mmHg 91%
18:00 +16°C° 0 mm 1 mps 737 mmHg 91%
19:00 +15°C° 0 mm 0 mps 737 mmHg 90%
20:00 +16°C° 0 mm 1 mps 737 mmHg 90%
21:00 +16°C° 0 mm 1 mps 738 mmHg 89%
22:00 +16°C° 0 mm 1 mps 738 mmHg 88%
23:00 +16°C° 0 mm 1 mps 738 mmHg 88%

2 August, Monday

Time Temperature Precipitation Wind Pressure Humidity
00:00 +16°C° 0 mm 1 mps 738 mmHg 88%
01:00 +16°C° 0 mm 2 mps 737 mmHg 88%
02:00 +16°C° 0.7 mm 2 mps 738 mmHg 90%
03:00 +15°C° 0.7 mm 2 mps 738 mmHg 92%
04:00 +15°C° 0.7 mm 2 mps 738 mmHg 94%
05:00 +16°C° 0.1 mm 2 mps 738 mmHg 93%
06:00 +16°C° 0.1 mm 2 mps 738 mmHg 91%
07:00 +16°C° 0.1 mm 1 mps 738 mmHg 89%
08:00 +18°C° 0.3 mm 2 mps 739 mmHg 81%
09:00 +20°C° 0.3 mm 2 mps 739 mmHg 72%
10:00 +21°C° 0.3 mm 2 mps 739 mmHg 64%
11:00 +21°C° 0.6 mm 2 mps 739 mmHg 63%
12:00 +22°C° 0.6 mm 3 mps 739 mmHg 63%
13:00 +22°C° 0.6 mm 3 mps 740 mmHg 62%
14:00 +22°C° 0.6 mm 3 mps 740 mmHg 63%
15:00 +22°C° 0.6 mm 3 mps 740 mmHg 63%
16:00 +22°C° 0.6 mm 4 mps 740 mmHg 63%
17:00 +21°C° 0.5 mm 3 mps 740 mmHg 69%
18:00 +20°C° 0.5 mm 2 mps 740 mmHg 74%
19:00 +18°C° 0.5 mm 2 mps 740 mmHg 79%
20:00 +17°C° 0.1 mm 2 mps 741 mmHg 82%
21:00 +16°C° 0.1 mm 2 mps 741 mmHg 85%
22:00 +15°C° 0.1 mm 2 mps 741 mmHg 89%
23:00 +15°C° 0 mm 2 mps 742 mmHg 89%

3 August, Tuesday

Time Temperature Precipitation Wind Pressure Humidity
00:00 +15°C° 0 mm 2 mps 742 mmHg 90%
01:00 +14°C° 0 mm 2 mps 742 mmHg 90%
02:00 +14°C° 0 mm 1 mps 742 mmHg 90%
03:00 +14°C° 0 mm 1 mps 742 mmHg 90%
04:00 +14°C° 0 mm 1 mps 742 mmHg 90%
05:00 +15°C° 0 mm 1 mps 742 mmHg 86%
06:00 +16°C° 0 mm 1 mps 743 mmHg 82%
07:00 +19°C° 0 mm 1 mps 743 mmHg 78%
08:00 +20°C° 0 mm 1 mps 743 mmHg 71%
09:00 +22°C° 0 mm 1 mps 743 mmHg 64%
10:00 +23°C° 0 mm 2 mps 743 mmHg 57%
11:00 +24°C° 0.1 mm 1 mps 742 mmHg 54%
12:00 +25°C° 0.1 mm 1 mps 742 mmHg 50%
13:00 +26°C° 0.1 mm 1 mps 742 mmHg 47%
14:00 +26°C° 0 mm 1 mps 741 mmHg 46%
15:00 +26°C° 0 mm 1 mps 741 mmHg 46%
16:00 +26°C° 0 mm 1 mps 741 mmHg 46%
17:00 +25°C° 0 mm 1 mps 741 mmHg 51%
18:00 +23°C° 0 mm 1 mps 740 mmHg 57%
19:00 +21°C° 0 mm 2 mps 740 mmHg 63%
20:00 +20°C° 0 mm 2 mps 740 mmHg 64%
21:00 +19°C° 0 mm 2 mps 740 mmHg 66%
22:00 +19°C° 0 mm 2 mps 740 mmHg 67%
23:00 +18°C° 1 mm 2 mps 740 mmHg 76%

4 August, Wednesday

Time Temperature Precipitation Wind Pressure Humidity
00:00 +17°C° 1 mm 2 mps 740 mmHg 85%
01:00 +16°C° 1 mm 2 mps 740 mmHg 93%
02:00 +16°C° 1 mm 2 mps 740 mmHg 94%
03:00 +16°C° 1 mm 1 mps 740 mmHg 95%
04:00 +15°C° 1 mm 1 mps 740 mmHg 95%
05:00 +16°C° 0 mm 1 mps 740 mmHg 91%
06:00 +18°C° 0 mm 1 mps 740 mmHg 86%
07:00 +18°C° 0 mm 2 mps 740 mmHg 81%
08:00 +19°C° 0 mm 2 mps 740 mmHg 72%
09:00 +21°C° 0 mm 2 mps 740 mmHg 64%
10:00 +23°C° 0 mm 2 mps 740 mmHg 55%
11:00 +24°C° 0 mm 2 mps 740 mmHg 52%
12:00 +24°C° 0 mm 2 mps 739 mmHg 49%
13:00 +25°C° 0 mm 3 mps 739 mmHg 46%
14:00 +25°C° 0 mm 2 mps 739 mmHg 46%
15:00 +25°C° 0 mm 2 mps 739 mmHg 47%
16:00 +25°C° 0 mm 1 mps 739 mmHg 47%
17:00 +24°C° 0 mm 1 mps 739 mmHg 53%
18:00 +22°C° 0 mm 1 mps 738 mmHg 59%
19:00 +21°C° 0 mm 1 mps 738 mmHg 64%
20:00 +21°C° 0 mm 1 mps 738 mmHg 66%
21:00 +20°C° 0 mm 1 mps 738 mmHg 68%
22:00 +19°C° 0 mm 1 mps 738 mmHg 70%
23:00 +19°C° 0 mm 1 mps 738 mmHg 71%
Show more